Location: Berlise
(49.6641°N, 4.1077°E)
Time: 02:58:10
(UTC+00:00)

Cosmos 2333 Rocket - Pass Details

Date: 27 January 2021
Orbit: 839 x 863 km, 70.8° (Epoch: 24 February)

Event Time Altitude Azimuth Distance (km) Brightness Sun altitude
Exits shadow 04:04:34 29° 10° (N) 1,518 3.6 -31.9°
Drops below altitude 10° 04:07:22 10° 23° (NNE) 2,479 5.0 -31.5°
Sets 04:09:54 0° 28° (NNE) 3,422 5.8 -31.0°
